Probability
0 0 0 0 0 0 0 0 0 0 0 1 2 2 1 0 0 0 0 1 2 2 1 0 0 0 0 0 0 0 0 0 0 0 0 0 0 0 0 0 0 0 0
0 0 0 0 0 0 0 0 0 0 0 0 1 1 1 0 0 0 0 0 1 1 0 0 0 0 0 0 0 0 0 0 0 0 0 0 0 0 0 0 0 0 0
0 0 0 0 0 0 0 0 0 0 0 0 0 0 0 0 0 0 0 0 0 0 0 0 0 0 0 0 0 0 0 0 0 0 0 0 0 0 0 0 0 0 0
0 0 0 0 0 0 0 0 0 0 0 0 0 0 0 0 0 0 0 0 0 0 0 0 0 0 0 0 0 0 0 0 0 0 0 0 0 0 0 0 0 0 0
0 0 0 0 0 0 0 0 0 0 0 0 0 0 0 0 0 0 0 0 0 0 0 0 0 0 0 0 0 0 0 0 0 0 0 0 0 0 0 0 0 0 0
0 0 0 0 0 0 0 0 0 0 0 0 0 0 0 0 0 0 0 0 0 0 0 0 0 0 0 0 0 0 0 0 0 0 0 0 0 0 0 0 0 0 0
0 0 0 0 0 0 0 0 0 0 0 0 0 0 0 0 0 0 0 0 0 0 0 0 0 0 0 0 0 0 0 0 0 0 0 0 0 0 0 0 0 0 0
0 0 0 0 0 0 0 0 0 0 0 0 0 0 0 0 0 0 0 0 0 0 0 0 0 0 0 0 0 0 0 0 0 0 0 0 0 0 0 0 0 0 0
0 0 0 0 0 0 0 0 0 0 0 0 0 0 0 0 0 0 0 0 0 0 0 0 0 0 0 0 0 0 0 0 0 0 0 0 0 0 0 0 1 0 0
0 0 0 0 0 0 0 0 0 0 0 0 0 0 0 0 0 0 0 0 0 0 0 0 0 0 0 0 1 1 0 0 0 0 0 1 1 0 0 0 0 0 0
0 0 0 0 0 0 0 0 0 0 0 0 0 0 0 0 0 0 0 0 0 0 0 0 0 0 0 0 1 1 0 0 0 0 1 2 1 0 0 0 0 0 0
0 0 0 0 0 0 0 0 0 0 0 0 0 0 0 0 0 0 0 0 0 0 0 0 0 0 0 0 1 1 0 0 0 0 1 2 1 0 0 0 0 0 1
0 0 0 0 0 0 0 0 0 0 0 0 0 0 0 0 0 0 0 0 0 0 0 0 0 0 0 0 0 0 0 0 0 0 1 1 1 0 0 0 0 0 1
0 0 0 0 0 0 0 0 0 0 0 0 0 0 0 0 0 0 0 0 0 0 0 0 0 0 0 0 0 0 0 0 0 0 0 1 1 1 0 0 0 0 1
0 0 0 0 0 0 0 0 0 0 0 0 0 0 0 0 0 0 0 0 0 0 0 0 0 0 0 0 0 0 0 0 0 0 0 0 0 1 1 0 0 0 0
0 0 0 0 0 0 0 0 0 0 0 0 0 0 0 0 0 0 0 0 0 0 0 0 0 0 0 0 0 0 0 0 0 0 0 0 0 0 0 0 0 0 0
0 0 0 0 0 0 0 0 0 0 0 0 0 0 0 0 0 0 0 0 0 0 0 0 0 0 0 0 0 0 0 0 0 0 0 0 0 0 0 0 0 0 0
0 0 0 0 0 0 0 0 0 0 0 0 0 0 0 0 0 0 0 0 0 0 0 0 0 0 0 0 0 0 0 0 0 0 0 0 0 0 0 0 0 0 0
0 0 0 0 0 0 0 0 0 0 0 0 0 0 0 0 0 0 0 0 0 0 0 0 0 0 0 0 0 0 0 0 0 0 0 0 0 0 0 0 0 1 1
0 0 0 0 0 0 0 0 0 0 0 0 0 0 0 0 0 0 0 0 0 0 0 0 0 0 0 0 0 0 0 0 0 0 0 0 0 0 0 0 0 0 0
0 0 0 0 0 0 0 0 0 0 0 0 0 0 0 0 0 0 0 0 0 0 0 0 0 0 0 0 0 0 0 0 0 0 0 0 0 0 0 0 0 0 0
0 0 0 0 0 0 0 0 0 0 0 0 0 0 0 0 0 0 0 0 0 0 0 0 0 0 0 0 0 0 0 0 0 0 0 0 0 0 0 0 0 0 0
0 0 0 0 0 0 0 0 0 0 0 0 0 0 0 0 0 0 0 0 0 0 0 0 0 0 0 0 0 0 0 0 0 0 0 0 0 0 0 0 0 0 0
0 0 0 0 0 0 0 0 0 0 0 0 0 0 0 0 0 0 0 0 0 0 0 0 0 0 0 0 0 0 0 0 0 0 0 0 0 0 0 0 0 0 0
0 0 0 0 0 0 0 0 0 0 0 0 0 0 0 0 0 0 0 0 0 0 0 0 0 0 0 0 0 0 0 0 0 0 0 0 0 0 0 0 0 0 0
0 0 0 0 0 0 0 0 0 0 0 0 0 0 0 0 0 0 0 0 0 0 0 0 0 0 0 0 0 0 0 0 0 0 0 0 0 0 0 0 0 0 0
Wind_Speed
2 3 10 11 12 12 12 12 12 12 12 12 12 12 11 11 10 10 10 9 9 9 8 8 7 7 7 7 7 7 7 6 6 5 4 4 4 5 5 5 5 3 5
5 5 11 12 12 12 12 12 12 12 12 12 11 11 11 10 10 9 9 9 8 8 8 7 7 7 7 6 6 6 6 6 5 4 4 4 4 4 5 5 5 3 5
6 5 8 12 12 12 12 12 12 12 11 11 11 11 10 10 10 9 9 8 8 7 7 7 7 6 6 6 6 6 6 6 6 4 4 2 2 4 5 5 5 5 5
7 5 8 12 12 12 12 11 11 11 11 10 10 10 9 9 9 9 8 8 7 7 7 6 6 6 5 5 5 5 6 5 5 5 2 1 1 4 5 5 4 5 5
7 5 8 12 12 11 11 11 11 10 10 10 9 9 8 8 8 8 8 7 7 7 6 6 5 5 5 5 5 5 5 5 5 4 2 2 1 4 4 4 4 4 4
7 5 8 12 11 11 11 10 9 9 9 8 8 7 7 7 7 7 7 6 6 6 5 5 5 5 5 4 5 5 5 5 5 3 2 1 1 4 5 4 4 4 3
6 5 7 11 11 10 10 9 8 8 7 7 7 6 5 5 5 5 5 5 5 5 5 4 4 4 4 4 4 5 5 4 3 2 2 1 2 4 5 4 4 4 3
7 5 6 11 11 10 9 8 7 6 6 5 4 4 4 4 3 3 4 4 4 4 4 4 4 4 5 4 4 4 4 3 4 3 2 1 3 5 5 5 5 4 4
6 5 4 4 6 8 8 7 6 5 3 2 2 2 2 1 2 2 2 2 3 3 3 4 4 4 4 4 3 4 4 4 3 2 2 1 4 5 6 6 5 5 5
5 5 4 3 2 2 3 5 4 3 1 1 2 2 2 1 1 1 2 2 3 4 4 4 4 5 4 4 3 3 3 4 2 2 1 1 5 6 7 6 6 5 5
5 4 4 3 3 2 2 3 2 1 1 2 2 3 3 2 2 2 3 3 4 5 6 5 5 5 5 4 3 3 2 1 1 1 1 2 6 7 7 6 6 6 6
6 5 4 4 4 3 2 2 0 1 1 2 2 2 2 1 1 2 4 5 6 6 6 6 6 5 4 2 2 3 1 1 1 1 1 4 6 7 7 7 6 6 6
6 5 5 5 4 3 2 2 0 1 1 2 2 2 2 2 2 2 2 4 4 5 4 4 4 3 2 1 1 1 1 1 1 1 2 5 6 7 7 7 6 6 6
5 6 5 5 4 3 3 2 1 1 1 2 2 3 3 2 2 2 2 3 2 2 2 2 2 3 3 2 2 2 2 2 1 1 2 5 6 7 7 7 6 6 6
6 5 5 5 4 4 3 2 2 2 2 3 3 3 3 3 2 3 2 3 3 2 2 3 3 3 3 3 3 3 3 3 2 2 1 5 6 6 7 7 7 6 6
6 5 5 5 5 5 3 2 2 2 3 3 3 4 4 3 3 3 3 3 3 3 2 2 3 3 3 3 4 4 4 3 3 3 2 3 5 5 6 6 7 7 7
7 6 6 6 6 6 5 4 3 3 3 4 3 4 4 4 3 3 3 4 4 4 4 4 4 4 4 4 4 4 4 3 3 3 3 2 3 5 6 7 7 7 7
7 6 5 7 7 6 5 4 3 3 4 3 3 4 5 5 5 4 4 3 4 4 4 4 4 4 4 4 3 4 3 3 4 4 3 3 3 3 5 8 8 8 8
7 7 6 6 6 6 5 4 4 4 4 3 3 4 4 5 5 4 3 3 4 4 4 4 4 3 3 3 3 4 4 4 4 5 5 4 4 4 3 6 9 9 10
7 6 6 6 6 5 4 4 4 4 3 3 3 4 5 4 5 4 4 5 4 4 5 4 4 4 3 3 4 5 4 4 4 4 4 4 4 5 5 5 4 6 10
6 6 6 6 4 4 3 3 3 2 2 2 3 4 5 5 5 5 4 4 5 4 4 4 3 5 4 2 4 4 5 5 5 4 4 4 5 5 5 5 4 4 5
7 6 6 6 5 4 3 3 3 2 1 1 2 4 4 5 5 4 4 4 4 4 6 6 4 3 4 4 3 3 4 5 5 6 4 4 5 4 5 6 5 5 5
7 7 7 6 5 4 4 4 3 3 3 3 3 3 3 4 5 4 4 4 4 4 4 4 4 4 3 4 3 3 3 1 2 4 5 5 5 4 4 4 6 6 6
7 6 7 6 6 5 5 5 5 3 2 1 1 1 3 4 4 4 4 4 4 4 4 4 4 3 4 3 3 3 3 3 3 2 4 4 5 5 5 5 5 5 5
7 7 6 6 5 5 5 6 6 4 2 1 2 3 3 4 4 4 4 4 4 4 4 5 5 5 4 3 2 2 3 3 3 3 2 3 4 4 4 5 4 5 5
7 6 6 7 5 4 5 5 6 6 4 4 3 2 2 2 3 4 4 4 4 3 4 4 4 5 4 5 4 4 3 2 2 2 2 1 2 2 4 4 5 5 5
Wind_Direction
87 104 104 100 98 96 93 92 90 87 84 81 78 75 74 74 73 72 72 72 69 66 65 65 67 62 58 53 51 53 55 56 57 54 60 70 71 72 74 74 69 71 79
130 115 108 103 101 99 96 92 89 86 84 81 78 75 72 70 69 69 68 68 67 65 63 62 64 61 58 53 46 47 48 45 46 54 55 68 77 81 80 80 76 83 81
117 111 109 108 105 102 98 94 90 87 84 81 79 76 72 69 67 66 64 63 63 62 60 58 56 58 54 49 43 39 37 36 41 48 54 63 78 92 93 86 79 77 79
121 117 114 112 108 105 101 96 91 88 85 82 80 76 73 70 68 65 62 60 60 60 58 53 49 52 49 43 37 33 29 30 34 47 51 62 93 99 98 92 78 74 73
118 117 123 118 115 110 104 98 93 90 87 83 80 77 74 71 67 66 63 58 58 56 55 51 45 45 42 39 34 30 32 32 39 46 39 64 95 109 103 95 82 76 71
124 128 131 125 121 115 109 103 98 95 92 87 82 80 76 74 70 64 60 57 53 50 48 44 36 31 31 34 31 30 36 41 46 46 37 71 116 114 108 100 84 75 72
135 138 138 132 129 124 118 113 107 101 96 90 83 79 75 71 68 62 59 57 50 42 37 33 25 18 15 18 22 28 33 43 52 47 36 78 114 109 107 99 83 73 67
145 149 144 142 139 134 129 122 115 109 102 96 90 78 72 67 62 60 59 54 47 35 24 15 7 4 2 3 13 24 30 41 51 43 42 69 115 107 102 97 87 74 61
146 144 145 149 145 143 140 134 128 123 116 102 83 56 56 57 47 50 52 38 31 18 7 360 349 345 345 353 10 29 43 50 56 41 55 65 109 106 102 96 87 71 57
148 151 153 151 142 144 150 152 149 146 135 50 12 23 36 356 321 329 347 347 349 354 353 345 340 341 342 347 6 37 49 50 47 41 38 78 105 106 99 94 85 73 60
158 163 165 168 166 172 188 184 163 133 37 16 3 17 29 356 326 303 313 326 336 344 347 349 346 352 357 358 19 36 49 59 51 47 51 92 105 105 98 92 83 73 63
168 177 178 176 181 187 189 127 30 0 14 15 4 19 30 16 337 343 336 347 353 354 353 1 3 9 16 14 25 46 61 53 68 80 89 106 107 101 95 88 81 72 64
167 163 168 170 165 160 139 124 75 22 8 10 23 40 47 38 17 12 359 353 355 2 0 359 9 10 24 36 41 61 75 66 76 65 88 103 102 97 90 85 80 70 64
150 153 160 154 142 139 125 115 106 65 31 27 27 47 65 52 31 9 1 350 355 351 359 7 10 13 27 43 65 74 82 88 89 69 79 93 95 91 88 82 76 67 62
139 139 142 136 130 125 113 108 93 68 53 49 42 38 62 64 40 23 12 9 5 4 15 22 28 32 37 42 54 68 79 91 95 84 52 76 83 77 79 79 75 68 61
133 131 121 115 118 111 105 104 90 75 60 54 47 41 51 59 53 45 30 21 14 10 19 33 42 48 42 51 52 55 69 79 81 85 66 51 64 64 66 74 70 68 61
131 126 121 119 110 105 102 95 87 79 71 57 45 41 44 49 53 52 39 26 15 17 27 35 34 41 45 51 50 52 63 65 69 72 66 48 41 52 57 63 63 62 56
130 125 124 119 107 100 98 92 87 79 72 58 46 44 43 45 51 53 44 26 19 27 28 40 34 39 39 47 47 40 48 56 60 68 65 55 44 42 44 52 55 54 53
130 124 115 110 105 102 98 91 82 74 67 57 47 43 42 44 48 58 50 28 29 35 28 35 39 44 48 44 54 50 40 46 51 66 62 59 54 51 45 48 48 47 46
130 122 117 110 107 105 94 84 66 55 48 46 48 45 44 42 46 54 51 33 34 41 31 31 41 41 52 50 64 54 40 38 46 51 51 51 55 57 54 47 37 37 40
128 124 124 121 122 114 101 97 90 72 44 37 39 45 45 45 49 57 52 39 39 44 36 36 43 46 38 37 61 40 27 35 46 39 39 47 48 48 54 49 40 34 27
142 138 132 132 130 124 123 123 125 124 89 54 29 35 39 46 47 61 59 53 44 46 39 36 44 50 33 31 80 74 34 14 14 24 30 46 45 43 49 50 42 37 32
151 153 146 145 132 124 117 100 83 61 44 34 32 25 22 46 51 58 62 63 51 54 48 41 47 64 57 29 49 109 108 90 351 359 17 30 34 41 39 42 44 34 34
160 151 146 142 132 127 121 118 122 119 118 147 104 39 26 37 48 56 64 65 59 55 53 47 55 61 72 48 28 44 93 138 118 35 358 10 31 38 33 41 37 29 28
152 147 145 137 133 131 125 129 125 121 130 115 81 61 40 29 38 53 63 64 60 57 59 56 54 57 65 70 56 53 58 54 67 106 57 359 15 16 24 30 30 26 23
144 140 141 138 138 135 129 131 133 134 129 117 105 90 49 26 27 39 60 62 64 63 63 62 62 62 63 67 62 59 72 78 70 90 101 46 26 356 16 25 24 20 18